Hourly Data Report for October 16, 2016

All times are specified in Local Standard Time (LST). Add 1 hour to adjust for Daylight Saving Time where and when it is observed.

SAINT JOHN A
NEW BRUNSWICK

45°18'58.000" N
65°53'24.000" W
108.80 m
8104901
71609
YSJ

Download Data

Hourly Data (October 2016)
Hourly Data Report for October 16, 2016
Temp Definition
°C
Dew Point Temp Definition
°C
Rel Hum Definition
%
Wind Dir Definition
10's deg

Wind Spd Definition
km/h
Visibility Definition
km
Stn Press Definition
kPa
Hmdx Definition


Wind Chill Definition


Weather Definition


TIME
00:00 Legend Double Dagger 0.5 0.5 100 1 3 24.1 101.29     LegendNANA
01:00 Legend Double Dagger -0.1 -0.1 100 5 3 24.1 101.24   -1 LegendNANA
02:00 Legend Double Dagger -1.5 -1.5 100 36 1 24.1 101.14   -2 Mainly Clear
03:00 Legend Double Dagger -2.0 -2.0 100 36 1 24.1 101.06   -2 LegendNANA
04:00 Legend Double Dagger -1.7 -1.7 100 36 1 24.1 101.02   -2 LegendNANA
05:00 Legend Double Dagger -1.7 -1.7 100 36 2 24.1 100.98   -2 Mainly Clear
06:00 Legend Double Dagger -2.3 -2.3 100 36 1 24.1 100.93   -3 LegendNANA
07:00 Legend Double Dagger -2.2 -2.2 100 0 1 24.1 100.89   -3 LegendNANA
08:00 Legend Double Dagger 1.6 1.6 100 21 4 24.1 100.86     Mostly Cloudy
09:00 Legend Double Dagger 10.0 3.8 65 22 19 24.1 100.77     LegendNANA
10:00 Legend Double Dagger 11.8 4.1 59 21 26 24.1 100.71     LegendNANA
11:00 Legend Double Dagger 11.6 6.4 70 20 27 24.1 100.64     Cloudy
12:00 Legend Double Dagger 11.4 7.7 78 20 30 24.1 100.52     LegendNANA
13:00 Legend Double Dagger 12.2 8.7 79 20 31 24.1 100.36     LegendNANA
14:00 Legend Double Dagger 11.8 9.4 85 21 30 24.1 100.33     Cloudy
15:00 Legend Double Dagger 12.1 10.2 88 21 34 19.3 100.24     LegendNANA
16:00 Legend Double Dagger 12.0 10.3 89 20 34 19.3 100.13     LegendNANA
17:00 Legend Double Dagger 11.9 10.5 91 20 29 19.3 100.03     Cloudy
18:00 Legend Double Dagger 11.9 10.8 93 21 33 16.1 99.97     LegendNANA
19:00 Legend Double Dagger 12.0 11.7 98 20 24 16.1 99.93     Rain
20:00 Legend Double Dagger 12.1 12.1 100 20 22 16.1 99.80     Cloudy
21:00 Legend Double Dagger 12.4 12.4 100 21 28 16.1 99.73     LegendNANA
22:00 Legend Double Dagger 12.6 12.6 100 21 22 16.1 99.68     LegendNANA
23:00 Legend Double Dagger 12.6 12.6 100 21 16 12.9 99.59     Cloudy

Notes on Data Quality.

Legend

  • E = Estimated
  • M = Missing
  • NA = Not Available
  • ‡ = Partner data that is not subject to review by the National Climate Archives
Date modified: